Flag for U.S.A. Weather past 2 weeks in Duluth, Minnesota, U.S.A.

Now
82 °F

Sunny.


Feels Like: 86 °F
Forecast: 60 / 81 °F
Wind: 15 mph from Southwest

Location: Sky Harbor Airport

Current Time: Aug 31, 2015 at 5:50:49 PM

Latest Report: Aug 31, 2015 at 4:33 PM


Visibility: 10 mi

Pressure: 29.82 "Hg

Humidity: 66%

Dew point: 70 °F

Location of DuluthLocation

Historic Weather in Duluth — Graph

°F

Duluth temperature yesterday

Maximum temperature yesterday: 82 °F (at 3:14 PM)
Minimum temperature yesterday: 63 °F (at 2:14 AM)
Average temperature yesterday: 71 °F

Past Weeks' High & Low Weather Summary

 TemperatureHumidityPressure
High84 °F (Aug 31, 3:14 PM)100% (Aug 19, 1:33 AM)30.20 "Hg (Aug 19, 1:33 AM)
Low48 °F (Aug 26, 5:34 AM)36% (Aug 26, 6:13 PM)29.42 "Hg (Aug 19, 10:34 AM)
Average62 °F80%29.89 "Hg
* Reported Aug 16 4:34 PM — Aug 31 4:33 PM, Duluth, Weather by CustomWeather, © 2015

Note: Actual official high and low records may vary slightly from our data, if they occured in-between our weather recording intervals... More about our weather records

Advertising

Duluth weather history for previous 24 hours

 ConditionsComfort  
Time TempWeatherWind HumidityBarometerVisibility
4:33 PM
Mon, Aug 31
82 °FSunny.15 mph66%29.82 "Hg10 mi
4:14 PM82 °FSunny.18 mph66%29.82 "Hg10 mi
3:54 PM82 °FSunny.21 mph66%29.82 "Hg10 mi
3:33 PM82 °FSunny.17 mph66%29.82 "Hg10 mi
3:14 PM84 °FSunny.14 mph62%29.83 "Hg10 mi
2:54 PM82 °FSunny.14 mph66%29.84 "Hg10 mi
2:33 PM82 °FSunny.16 mph66%29.83 "Hg10 mi
2:14 PM82 °FSunny.18 mph62%29.83 "Hg10 mi
1:54 PM81 °FSunny.14 mph70%29.84 "Hg10 mi
1:33 PM81 °FSunny.15 mph66%29.85 "Hg10 mi
1:14 PM81 °FSunny.17 mph66%29.85 "Hg10 mi
12:53 PM81 °FSunny.15 mph66%29.86 "Hg10 mi
12:34 PM81 °FSunny.14 mph66%29.86 "Hg10 mi
12:13 PM79 °FSunny.12 mph70%29.87 "Hg10 mi
11:54 AM79 °FSunny.15 mph65%29.87 "Hg10 mi
11:33 AM77 °FSunny.12 mph69%29.88 "Hg10 mi
11:14 AM75 °FSunny.13 mph74%29.88 "Hg10 mi
10:54 AM75 °FSunny.15 mph74%29.88 "Hg10 mi
10:33 AM73 °FScattered clouds.12 mph78%29.89 "Hg10 mi
10:14 AM73 °FPartly sunny.12 mph78%29.89 "Hg10 mi
9:54 AM72 °FScattered clouds.10 mph83%29.88 "Hg10 mi
9:33 AM70 °FSunny.6 mph88%29.89 "Hg10 mi
9:14 AM68 °FSunny.5 mph88%29.89 "Hg10 mi
8:54 AM66 °FSunny.5 mph94%29.89 "Hg10 mi
8:14 AM64 °FSunny.5 mph94%29.88 "Hg10 mi
7:53 AM64 °FSunny.3 mph94%29.89 "Hg7 mi
7:34 AM64 °FFog.No wind94%29.89 "Hg5 mi
7:14 AM64 °FFog.3 mph94%29.89 "Hg5 mi
6:53 AM64 °FFog.No wind94%29.89 "Hg5 mi
6:33 AM63 °FFog.No wind100%29.89 "Hg4 mi
6:14 AM64 °FFog.No wind94%29.88 "Hg5 mi
5:53 AM64 °FClear.No wind94%29.88 "Hg7 mi
5:34 AM64 °FClear.3 mph94%29.88 "Hg10 mi
5:13 AM66 °FClear.5 mph88%29.88 "Hg10 mi
4:54 AM66 °FClear.6 mph94%29.88 "Hg10 mi
4:31 AM66 °FClear.5 mph94%29.88 "Hg10 mi
4:13 AM66 °FPassing clouds.5 mph94%29.88 "Hg10 mi
3:53 AM66 °FPassing clouds.6 mph94%29.88 "Hg10 mi
3:34 AM66 °FOvercast.6 mph94%29.89 "Hg10 mi
3:14 AM66 °FOvercast.7 mph94%29.88 "Hg10 mi
2:53 AM66 °FPassing clouds.6 mph94%29.88 "Hg10 mi
2:34 AM66 °FPassing clouds.8 mph94%29.88 "Hg10 mi
2:13 AM68 °FClear.8 mph88%29.88 "Hg10 mi
1:54 AM68 °FClear.8 mph88%29.89 "Hg10 mi
1:34 AM68 °FClear.9 mph88%29.89 "Hg10 mi
1:13 AM68 °FClear.7 mph88%29.89 "Hg10 mi
12:54 AM70 °FClear.7 mph83%29.88 "Hg10 mi
12:34 AM70 °FClear.8 mph88%29.88 "Hg10 mi
12:13 AM70 °FClear.8 mph88%29.88 "Hg10 mi
11:54 PM
Sun, Aug 30
70 °FClear.8 mph88%29.88 "Hg10 mi
11:33 PM70 °FClear.7 mph83%29.88 "Hg10 mi
11:14 PM70 °FClear.6 mph83%29.88 "Hg10 mi
10:33 PM70 °FClear.5 mph88%29.88 "Hg10 mi
10:14 PM70 °FClear.6 mph88%29.88 "Hg10 mi
9:54 PM70 °FClear.5 mph88%29.88 "Hg10 mi
9:33 PM72 °FClear.5 mph83%29.88 "Hg10 mi
9:14 PM72 °FClear.3 mph83%29.88 "Hg10 mi
8:54 PM72 °FClear.6 mph83%29.88 "Hg10 mi
8:33 PM73 °FSunny.6 mph78%29.88 "Hg10 mi
8:14 PM73 °FSunny.6 mph78%29.87 "Hg10 mi
7:53 PM75 °FSunny.7 mph74%29.86 "Hg10 mi
7:33 PM77 °FSunny.9 mph69%29.85 "Hg10 mi
7:14 PM79 °FSunny.14 mph61%29.85 "Hg10 mi
6:53 PM79 °FSunny.14 mph65%29.85 "Hg10 mi
6:34 PM81 °FSunny.14 mph62%29.85 "Hg10 mi
6:14 PM81 °FSunny.13 mph62%29.85 "Hg10 mi
5:54 PM81 °FSunny.13 mph62%29.85 "Hg10 mi
5:34 PM82 °FSunny.14 mph62%29.86 "Hg10 mi
Weather by CustomWeather, © 2015

See weather overviewHow to use our weather pages